Location: Unspecified
(0.0000°N, 0.0000°E)
Time: 20:15:09
(UTC+02:00)

Haruka - Visible Passes

Search period start: 25 July 2014 00:00
Search period end: 04 August 2014 00:00
Orbit: 532 x 21246 km, 31.2° (Epoch: 24 July)

Date Brightness Start Highest point End Pass type
(mag) Time Alt. Az. Time Alt. Az. Time Alt. Az.
25 Jul 3.9 05:46:05 10° WNW 06:05:07 73° SW 06:09:43 10° SE visible
25 Jul 7.9 19:23:45 10° WSW 20:55:30 54° WNW 00:38:46 10° ENE visible
26 Jul 4.4 07:06:05 10° W 07:13:23 24° SW 07:16:48 10° S visible
26 Jul 7.4 20:43:51 10° W 01:25:37 44° N 01:50:52 10° ENE visible
27 Jul 6.6 22:25:01 10° W 02:48:10 47° N 02:55:11 38° NE visible
28 Jul 7.9 16:07:28 10° SW 16:39:21 81° SE 21:09:15 10° NE visible
29 Jul 6.4 02:50:45 10° NW 03:58:54 53° NNW 03:58:54 53° NNW visible
29 Jul 8.4 17:17:26 10° WSW 18:07:31 79° NW 22:29:43 10° ENE visible
30 Jul 5.3 04:43:55 10° WNW 05:17:38 24° SE 05:19:05 10° SE visible
30 Jul 8.1 18:29:32 10° WSW 19:46:17 61° NW 23:45:43 10° ENE visible
31 Jul 4.3 06:23:47 32° SSW 06:23:47 32° SSW 06:26:33 10° SSE visible
31 Jul 7.5 19:45:57 10° W 00:21:38 45° N 00:55:37 19° ENE visible
01 Aug 7.0 21:13:27 10° W 01:52:30 48° N 02:00:07 43° NE visible
02 Aug 6.9 23:47:37 10° WNW 03:04:41 52° NNW 03:04:41 52° NNW visible
03 Aug 8.1 16:25:21 10° WSW 17:02:17 85° NW 21:33:22 10° ENE visible
